JST324 YSSY-YBBN

Flight info

Callsign JST324
Flight time 1h 24m
Altitude 35000
Route OLSEM Y193 BANDA H252 BN
Aircraft A321/M-SDE3FGHIRWY/LB1

Departure

Time 2026-05-05 09:40
Airport Sydney Kingsford Smith International Airport (YSSY)

Arrival

Time 2026-05-05 11:05
Airport Brisbane International Airport (YBBN)
Time Latitude Longitude Altitude Speed Heading
2026-05-05 09:09 -33.93513 151.17688 30 ft 0 kts 101°
2026-05-05 09:27 -33.93512 151.17682 30 ft 3 kts 101°
2026-05-05 09:28 -33.93507 151.17650 30 ft 4 kts 99°
2026-05-05 09:28 -33.93504 151.17623 30 ft 4 kts 102°
2026-05-05 09:28 -33.93493 151.17596 30 ft 4 kts 140°
2026-05-05 09:28 -33.93472 151.17582 30 ft 2 kts 168°
2026-05-05 09:29 -33.93470 151.17581 30 ft 0 kts 168°
2026-05-05 09:31 -33.93471 151.17581 30 ft 0 kts 168°
2026-05-05 09:32 -33.93480 151.17584 30 ft 2 kts 168°
2026-05-05 09:32 -33.93502 151.17589 30 ft 5 kts 168°
2026-05-05 09:32 -33.93544 151.17600 30 ft 7 kts 168°
2026-05-05 09:32 -33.93603 151.17615 30 ft 10 kts 166°
2026-05-05 09:33 -33.93674 151.17653 30 ft 12 kts 152°
2026-05-05 09:33 -33.93755 151.17689 30 ft 13 kts 168°
2026-05-05 09:33 -33.93832 151.17712 30 ft 10 kts 149°
2026-05-05 09:33 -33.93885 151.17773 30 ft 11 kts 159°
2026-05-05 09:34 -33.93965 151.17796 29 ft 13 kts 168°
2026-05-05 09:34 -33.94056 151.17819 29 ft 14 kts 168°
2026-05-05 09:34 -33.94153 151.17844 30 ft 14 kts 168°
2026-05-05 09:34 -33.94250 151.17868 30 ft 14 kts 167°
2026-05-05 09:35 -33.94346 151.17894 30 ft 15 kts 167°
2026-05-05 09:35 -33.94534 151.17884 30 ft 14 kts 169°
2026-05-05 09:35 -33.94629 151.17908 30 ft 15 kts 168°
2026-05-05 09:36 -33.94730 151.17935 30 ft 15 kts 167°
2026-05-05 09:36 -33.94825 151.17960 30 ft 13 kts 168°
2026-05-05 09:36 -33.94915 151.17983 30 ft 14 kts 168°
2026-05-05 09:36 -33.95008 151.18007 30 ft 14 kts 168°
2026-05-05 09:37 -33.95094 151.18053 30 ft 14 kts 123°
2026-05-05 09:37 -33.95088 151.18170 30 ft 14 kts 78°
2026-05-05 09:37 -33.95067 151.18290 30 ft 15 kts 78°
2026-05-05 09:37 -33.95051 151.18380 30 ft 8 kts 78°
2026-05-05 09:38 -33.95047 151.18401 30 ft 0 kts 78°
2026-05-05 09:38 -33.95043 151.18423 30 ft 6 kts 78°
2026-05-05 09:38 -33.95027 151.18511 30 ft 16 kts 77°
2026-05-05 09:38 -33.95002 151.18648 30 ft 15 kts 78°
2026-05-05 09:39 -33.94980 151.18775 29 ft 14 kts 79°
2026-05-05 09:39 -33.95035 151.18845 24 ft 13 kts 167°
2026-05-05 09:39 -33.95150 151.18876 24 ft 33 kts 169°
2026-05-05 09:39 -33.95632 151.19000 25 ft 106 kts 167°
2026-05-05 09:40 -33.96556 151.19239 58 ft 159 kts 168°
2026-05-05 09:40 -33.97661 151.19519 614 ft 163 kts 166°
2026-05-05 09:40 -33.98593 151.20268 1239 ft 167 kts 127°
2026-05-05 09:40 -33.99192 151.21462 1922 ft 166 kts 125°
2026-05-05 09:41 -33.99837 151.22697 2226 ft 184 kts 126°
2026-05-05 09:41 -34.00575 151.24075 2444 ft 207 kts 127°
2026-05-05 09:41 -34.01631 151.25362 2640 ft 229 kts 143°
2026-05-05 09:41 -34.02927 151.26631 2986 ft 248 kts 143°
2026-05-05 09:42 -34.04278 151.27951 3677 ft 253 kts 142°
2026-05-05 09:42 -34.05185 151.28840 4190 ft 255 kts 142°
2026-05-05 09:42 -34.06569 151.30196 4959 ft 258 kts 143°
2026-05-05 09:42 -34.07979 151.31578 5641 ft 264 kts 143°
2026-05-05 09:43 -34.09424 151.32988 6284 ft 271 kts 143°
2026-05-05 09:43 -34.10834 151.34546 6872 ft 280 kts 128°
2026-05-05 09:43 -34.11650 151.36688 7495 ft 287 kts 101°
2026-05-05 09:43 -34.11582 151.39102 8109 ft 294 kts 73°
2026-05-05 09:44 -34.10593 151.41261 8700 ft 298 kts 47°
2026-05-05 09:44 -34.09196 151.43119 9414 ft 300 kts 46°
2026-05-05 09:44 -34.07762 151.44972 10080 ft 304 kts 41°
2026-05-05 09:44 -34.06077 151.46556 10478 ft 314 kts 28°
2026-05-05 09:45 -34.04043 151.47695 10641 ft 332 kts 15°
2026-05-05 09:45 -34.01749 151.48444 10767 ft 351 kts 12°
2026-05-05 09:45 -33.99343 151.49213 11096 ft 362 kts 13°
2026-05-05 09:45 -33.96892 151.50008 11624 ft 367 kts 13°
2026-05-05 09:46 -33.94418 151.50820 12190 ft 370 kts 13°
2026-05-05 09:46 -33.91919 151.51641 12763 ft 374 kts 13°
2026-05-05 09:46 -33.89397 151.52469 13327 ft 378 kts 13°
2026-05-05 09:46 -33.86847 151.53305 13904 ft 381 kts 13°
2026-05-05 09:47 -33.84274 151.54149 14410 ft 385 kts 13°
2026-05-05 09:47 -33.81685 151.54999 14942 ft 387 kts 13°
2026-05-05 09:47 -33.79090 151.55848 15471 ft 389 kts 13°
2026-05-05 09:47 -33.76474 151.56702 16002 ft 391 kts 13°
2026-05-05 09:48 -33.73845 151.57559 16552 ft 392 kts 13°
2026-05-05 09:48 -33.71200 151.58416 17111 ft 394 kts 13°
2026-05-05 09:48 -33.68550 151.59276 17641 ft 396 kts 13°
2026-05-05 09:48 -33.65900 151.60215 18140 ft 399 kts 19°
2026-05-05 09:49 -33.63404 151.61614 18593 ft 404 kts 29°
2026-05-05 09:49 -33.61012 151.63479 19010 ft 406 kts 32°
2026-05-05 09:49 -33.58648 151.65354 19434 ft 408 kts 31°
2026-05-05 09:49 -33.56268 151.67224 19840 ft 411 kts 31°
2026-05-05 09:50 -33.53868 151.69103 20237 ft 413 kts 31°
2026-05-05 09:50 -33.51481 151.70961 20635 ft 415 kts 29°
2026-05-05 09:50 -33.48924 151.72547 21012 ft 414 kts 19°
2026-05-05 09:50 -33.46157 151.73635 21414 ft 414 kts 12°
2026-05-05 09:51 -33.43405 151.74518 21811 ft 416 kts 12°
2026-05-05 09:51 -33.40564 151.75431 22226 ft 418 kts 12°
2026-05-05 09:51 -33.37754 151.76338 22622 ft 420 kts 11°
2026-05-05 09:51 -33.34927 151.77252 23020 ft 422 kts 11°
2026-05-05 09:52 -33.32085 151.78169 23407 ft 424 kts 11°
2026-05-05 09:52 -33.29236 151.79087 23806 ft 425 kts 11°
2026-05-05 09:52 -33.26374 151.80012 24132 ft 427 kts 11°
2026-05-05 09:52 -33.23541 151.80929 24476 ft 428 kts 10°
2026-05-05 09:53 -33.20665 151.81863 24826 ft 429 kts 10°
2026-05-05 09:53 -33.17784 151.82796 25168 ft 430 kts 10°
2026-05-05 09:53 -33.14890 151.83729 25511 ft 430 kts
2026-05-05 09:53 -33.11996 151.84655 25836 ft 431 kts
2026-05-05 09:54 -33.09092 151.85584 26188 ft 432 kts
2026-05-05 09:54 -33.06190 151.86511 26537 ft 433 kts
2026-05-05 09:54 -33.03274 151.87443 26868 ft 433 kts
2026-05-05 09:54 -33.00362 151.88375 27198 ft 434 kts
2026-05-05 09:55 -32.97437 151.89309 27524 ft 435 kts
2026-05-05 09:55 -32.94510 151.90242 27842 ft 436 kts
2026-05-05 09:55 -32.91574 151.91178 28153 ft 437 kts
2026-05-05 09:55 -32.88631 151.92121 28418 ft 439 kts
2026-05-05 09:56 -32.85683 151.93071 28702 ft 440 kts
2026-05-05 09:56 -32.82723 151.94026 28976 ft 440 kts
2026-05-05 09:56 -32.79767 151.94975 29261 ft 440 kts
2026-05-05 09:56 -32.76810 151.95920 29519 ft 441 kts
2026-05-05 09:57 -32.73835 151.96870 29758 ft 441 kts
2026-05-05 09:57 -32.70877 151.97815 30087 ft 440 kts
2026-05-05 09:57 -32.67923 151.98758 30400 ft 438 kts
2026-05-05 09:57 -32.64988 151.99693 30678 ft 437 kts
2026-05-05 09:58 -32.62057 152.00626 30956 ft 435 kts
2026-05-05 09:58 -32.59130 152.01555 31230 ft 434 kts
2026-05-05 09:58 -32.56216 152.02477 31496 ft 433 kts
2026-05-05 09:58 -32.53303 152.03400 31761 ft 432 kts
2026-05-05 09:59 -32.50402 152.04318 32022 ft 431 kts
2026-05-05 09:59 -32.47504 152.05238 32279 ft 430 kts
2026-05-05 09:59 -32.44616 152.06155 32502 ft 430 kts
2026-05-05 09:59 -32.41729 152.07072 32754 ft 428 kts
2026-05-05 10:00 -32.38852 152.07981 33010 ft 427 kts
2026-05-05 10:00 -32.35983 152.08886 33266 ft 426 kts
2026-05-05 10:00 -32.33114 152.09794 33520 ft 426 kts
2026-05-05 10:00 -32.30260 152.10699 33789 ft 425 kts
2026-05-05 10:01 -32.27406 152.11596 34050 ft 424 kts
2026-05-05 10:01 -32.24561 152.12485 34275 ft 423 kts
2026-05-05 10:01 -32.21721 152.13376 34422 ft 422 kts
2026-05-05 10:01 -32.18882 152.14270 34620 ft 422 kts
2026-05-05 10:02 -32.16041 152.15166 34811 ft 422 kts
2026-05-05 10:02 -32.13209 152.16057 34990 ft 422 kts
2026-05-05 10:02 -32.10370 152.16942 35142 ft 422 kts
2026-05-05 10:02 -32.07532 152.17828 35190 ft 421 kts
2026-05-05 10:03 -32.01907 152.19598 35193 ft 420 kts
2026-05-05 10:03 -31.96261 152.21367 35193 ft 419 kts
2026-05-05 10:04 -31.90631 152.23135 35197 ft 418 kts
2026-05-05 10:04 -31.85008 152.24896 35196 ft 418 kts
2026-05-05 10:05 -31.79378 152.26640 35198 ft 418 kts
2026-05-05 10:05 -31.73755 152.28395 35181 ft 418 kts
2026-05-05 10:06 -31.67715 152.30275 35195 ft 418 kts
2026-05-05 10:06 -31.63005 152.31743 35199 ft 417 kts
2026-05-05 10:07 -31.51645 152.35275 35196 ft 418 kts
2026-05-05 10:08 -31.46046 152.37003 35200 ft 419 kts
2026-05-05 10:08 -31.40408 152.38744 35204 ft 419 kts
2026-05-05 10:09 -31.34763 152.40486 35202 ft 419 kts
2026-05-05 10:09 -31.29121 152.42223 35172 ft 421 kts
2026-05-05 10:10 -31.23434 152.43984 35164 ft 425 kts
2026-05-05 10:10 -31.17704 152.45756 35165 ft 427 kts
2026-05-05 10:11 -31.11943 152.47526 35173 ft 429 kts
2026-05-05 10:11 -31.06164 152.49306 35159 ft 431 kts
2026-05-05 10:12 -31.00332 152.51089 35156 ft 435 kts
2026-05-05 10:12 -30.94458 152.52876 35167 ft 438 kts
2026-05-05 10:13 -30.88538 152.54689 35163 ft 441 kts
2026-05-05 10:13 -30.82627 152.56500 35169 ft 442 kts
2026-05-05 10:14 -30.76703 152.58389 35208 ft 443 kts
2026-05-05 10:14 -30.70804 152.60550 35217 ft 444 kts
2026-05-05 10:15 -30.64921 152.62772 35221 ft 444 kts
2026-05-05 10:15 -30.59033 152.64944 35191 ft 442 kts
2026-05-05 10:16 -30.53180 152.67053 35215 ft 440 kts
2026-05-05 10:16 -30.47340 152.69145 35218 ft 438 kts
2026-05-05 10:17 -30.41556 152.71228 35219 ft 437 kts
2026-05-05 10:17 -30.35749 152.73318 35214 ft 436 kts
2026-05-05 10:18 -30.29958 152.75401 35213 ft 436 kts
2026-05-05 10:18 -30.24163 152.77491 35205 ft 436 kts
2026-05-05 10:19 -30.18372 152.79574 35206 ft 436 kts
2026-05-05 10:19 -30.12578 152.81652 35190 ft 435 kts
2026-05-05 10:20 -30.06806 152.83717 35200 ft 433 kts
2026-05-05 10:20 -30.01100 152.85762 35202 ft 431 kts
2026-05-05 10:21 -29.95377 152.87806 35199 ft 429 kts
2026-05-05 10:21 -29.89670 152.89836 35175 ft 428 kts
2026-05-05 10:22 -29.83988 152.91860 35187 ft 427 kts
2026-05-05 10:22 -29.78322 152.93883 35183 ft 426 kts
2026-05-05 10:23 -29.72665 152.95897 35183 ft 425 kts
2026-05-05 10:23 -29.67009 152.97901 35148 ft 425 kts
2026-05-05 10:24 -29.61367 152.99908 35166 ft 424 kts
2026-05-05 10:24 -29.55740 153.01908 35171 ft 423 kts
2026-05-05 10:25 -29.50112 153.03892 35173 ft 423 kts
2026-05-05 10:25 -29.44491 153.05875 35149 ft 423 kts
2026-05-05 10:26 -29.38906 153.07846 35166 ft 422 kts
2026-05-05 10:26 -29.33307 153.09822 35172 ft 421 kts
2026-05-05 10:27 -29.27709 153.11794 35172 ft 421 kts
2026-05-05 10:27 -29.22120 153.13766 35169 ft 420 kts
2026-05-05 10:28 -29.16544 153.15726 35165 ft 418 kts
2026-05-05 10:28 -29.11005 153.17673 35171 ft 415 kts
2026-05-05 10:29 -29.08242 153.18642 34605 ft 417 kts
2026-05-05 10:29 -29.05455 153.19616 33767 ft 419 kts
2026-05-05 10:29 -29.02667 153.20593 32998 ft 419 kts
2026-05-05 10:29 -28.99878 153.21573 32183 ft 420 kts
2026-05-05 10:30 -28.97076 153.22554 31362 ft 423 kts
2026-05-05 10:30 -28.94249 153.23540 30524 ft 426 kts
2026-05-05 10:30 -28.91421 153.24529 29967 ft 423 kts
2026-05-05 10:30 -28.88663 153.25501 29424 ft 418 kts
2026-05-05 10:31 -28.85905 153.26473 28890 ft 412 kts
2026-05-05 10:31 -28.83181 153.27430 28359 ft 407 kts
2026-05-05 10:31 -28.80489 153.28374 27840 ft 402 kts
2026-05-05 10:31 -28.77825 153.29302 27321 ft 398 kts
2026-05-05 10:32 -28.75193 153.30216 26806 ft 394 kts
2026-05-05 10:32 -28.72550 153.31113 26342 ft 404 kts
2026-05-05 10:32 -28.69817 153.32042 26121 ft 415 kts
2026-05-05 10:32 -28.67036 153.33001 26137 ft 419 kts
2026-05-05 10:33 -28.64240 153.33977 26139 ft 421 kts
2026-05-05 10:33 -28.61439 153.34964 26138 ft 421 kts
2026-05-05 10:33 -28.58643 153.35950 26140 ft 421 kts
2026-05-05 10:33 -28.55838 153.36934 26138 ft 421 kts
2026-05-05 10:34 -28.53039 153.37912 26133 ft 421 kts
2026-05-05 10:34 -28.50235 153.38886 26133 ft 421 kts
2026-05-05 10:34 -28.47432 153.39855 26110 ft 421 kts
2026-05-05 10:34 -28.44621 153.40826 26134 ft 423 kts
2026-05-05 10:35 -28.41803 153.41798 26134 ft 424 kts
2026-05-05 10:35 -28.38985 153.42771 26134 ft 424 kts
2026-05-05 10:35 -28.36158 153.43749 26127 ft 424 kts
2026-05-05 10:35 -28.33337 153.44724 25641 ft 425 kts
2026-05-05 10:36 -28.30476 153.45708 24735 ft 431 kts
2026-05-05 10:36 -28.27663 153.46683 24274 ft 424 kts
2026-05-05 10:36 -28.24863 153.47657 23743 ft 419 kts
2026-05-05 10:36 -28.22095 153.48617 23152 ft 413 kts 10°
2026-05-05 10:37 -28.19362 153.49524 22653 ft 403 kts
2026-05-05 10:37 -28.16648 153.49948 22165 ft 387 kts 355°
2026-05-05 10:37 -28.14011 153.49810 21704 ft 373 kts 346°
2026-05-05 10:37 -28.11493 153.49293 21251 ft 364 kts 344°
2026-05-05 10:38 -28.09024 153.48770 20811 ft 358 kts 344°
2026-05-05 10:38 -28.06586 153.48264 20376 ft 353 kts 345°
2026-05-05 10:38 -28.04191 153.47771 19947 ft 347 kts 345°
2026-05-05 10:38 -28.01837 153.47289 19514 ft 342 kts 345°
2026-05-05 10:39 -27.99514 153.46813 19089 ft 337 kts 345°
2026-05-05 10:39 -27.97221 153.46341 18649 ft 333 kts 345°
2026-05-05 10:39 -27.94954 153.45871 18185 ft 330 kts 346°
2026-05-05 10:39 -27.92708 153.45402 17732 ft 328 kts 346°
2026-05-05 10:40 -27.90464 153.44932 17292 ft 328 kts 346°
2026-05-05 10:40 -27.88226 153.44468 16861 ft 327 kts 346°
2026-05-05 10:40 -27.85988 153.44005 16438 ft 327 kts 346°
2026-05-05 10:40 -27.83754 153.43544 16012 ft 326 kts 347°
2026-05-05 10:41 -27.81523 153.43084 15569 ft 326 kts 347°
2026-05-05 10:41 -27.79287 153.42625 15131 ft 326 kts 347°
2026-05-05 10:41 -27.77060 153.42166 14700 ft 325 kts 347°
2026-05-05 10:41 -27.74862 153.41710 14278 ft 325 kts 347°
2026-05-05 10:42 -27.70408 153.40792 13379 ft 325 kts 348°
2026-05-05 10:42 -27.68178 153.40337 12947 ft 325 kts 348°
2026-05-05 10:42 -27.65957 153.39883 12508 ft 323 kts 348°
2026-05-05 10:43 -27.63733 153.39526 12091 ft 323 kts 355°
2026-05-05 10:43 -27.61422 153.39548 11634 ft 341 kts
2026-05-05 10:43 -27.59026 153.39658 11146 ft 346 kts
2026-05-05 10:43 -27.56620 153.39771 10669 ft 345 kts
2026-05-05 10:44 -27.54263 153.39883 10488 ft 331 kts
2026-05-05 10:44 -27.52014 153.39989 10371 ft 316 kts
2026-05-05 10:44 -27.49860 153.40090 10200 ft 305 kts
2026-05-05 10:44 -27.47764 153.40187 10041 ft 297 kts
2026-05-05 10:45 -27.45682 153.40282 9972 ft 300 kts
2026-05-05 10:45 -27.43598 153.40375 9734 ft 299 kts
2026-05-05 10:45 -27.41518 153.40469 9511 ft 298 kts
2026-05-05 10:45 -27.39446 153.40563 9280 ft 298 kts
2026-05-05 10:46 -27.37377 153.40655 9051 ft 297 kts
2026-05-05 10:46 -27.35315 153.40747 8770 ft 296 kts
2026-05-05 10:46 -27.33265 153.40839 8471 ft 294 kts
2026-05-05 10:46 -27.31246 153.40931 8180 ft 293 kts
2026-05-05 10:47 -27.29213 153.41025 7879 ft 292 kts
2026-05-05 10:47 -27.27184 153.41119 7591 ft 291 kts
2026-05-05 10:47 -27.25156 153.41214 7299 ft 291 kts
2026-05-05 10:47 -27.23137 153.41308 7006 ft 290 kts
2026-05-05 10:48 -27.21126 153.41297 6719 ft 289 kts 353°
2026-05-05 10:48 -27.19196 153.40713 6423 ft 288 kts 335°
2026-05-05 10:48 -27.17497 153.39551 6103 ft 286 kts 319°
2026-05-05 10:48 -27.16490 153.38599 5897 ft 286 kts 319°
2026-05-05 10:49 -27.14506 153.36683 5644 ft 273 kts 311°
2026-05-05 10:49 -27.13540 153.34940 5566 ft 256 kts 286°
2026-05-05 10:49 -27.13281 153.33036 5416 ft 243 kts 263°
2026-05-05 10:49 -27.13479 153.31817 5265 ft 238 kts 248°
2026-05-05 10:50 -27.14395 153.29583 4967 ft 235 kts 241°
2026-05-05 10:50 -27.14865 153.28486 4824 ft 235 kts 241°
2026-05-05 10:50 -27.15579 153.26836 4592 ft 234 kts 238°
2026-05-05 10:50 -27.16594 153.25456 4378 ft 228 kts 215°
2026-05-05 10:51 -27.17949 153.24564 4175 ft 226 kts 204°
2026-05-05 10:51 -27.19351 153.23767 4051 ft 226 kts 204°
2026-05-05 10:51 -27.20701 153.22892 4268 ft 226 kts 214°
2026-05-05 10:51 -27.21895 153.21690 4380 ft 233 kts 224°
2026-05-05 10:52 -27.22983 153.20353 4266 ft 231 kts 224°
2026-05-05 10:52 -27.24078 153.19040 4322 ft 231 kts 224°
2026-05-05 10:52 -27.25250 153.17816 4416 ft 231 kts 213°
2026-05-05 10:52 -27.26620 153.16899 4251 ft 227 kts 206°
2026-05-05 10:53 -27.28014 153.16061 4235 ft 227 kts 205°
2026-05-05 10:53 -27.29401 153.15205 4151 ft 228 kts 207°
2026-05-05 10:53 -27.30773 153.14327 4009 ft 227 kts 207°
2026-05-05 10:53 -27.32130 153.13419 3903 ft 227 kts 209°
2026-05-05 10:54 -27.33462 153.12473 3799 ft 227 kts 211°
2026-05-05 10:54 -27.34779 153.11479 3706 ft 228 kts 213°
2026-05-05 10:54 -27.36062 153.10428 3747 ft 229 kts 215°
2026-05-05 10:54 -27.37316 153.09323 3839 ft 230 kts 217°
2026-05-05 10:55 -27.38539 153.08157 3940 ft 232 kts 219°
2026-05-05 10:55 -27.39730 153.06941 3865 ft 231 kts 221°
2026-05-05 10:55 -27.40881 153.05689 3799 ft 230 kts 223°
2026-05-05 10:55 -27.42012 153.04416 3753 ft 229 kts 223°
2026-05-05 10:56 -27.43127 153.03139 3842 ft 230 kts 224°
2026-05-05 10:56 -27.44233 153.01839 3949 ft 230 kts 225°
2026-05-05 10:56 -27.45325 153.00510 3979 ft 231 kts 225°
2026-05-05 10:56 -27.46398 152.99162 3998 ft 231 kts 226°
2026-05-05 10:57 -27.47468 152.97807 3977 ft 231 kts 226°
2026-05-05 10:57 -27.48525 152.96483 4002 ft 230 kts 225°
2026-05-05 10:57 -27.49701 152.95271 4050 ft 229 kts 213°
2026-05-05 10:57 -27.51066 152.94354 3972 ft 228 kts 207°
2026-05-05 10:58 -27.52450 152.93497 3955 ft 227 kts 206°
2026-05-05 10:58 -27.53845 152.92649 3988 ft 228 kts 206°
2026-05-05 10:58 -27.55302 152.91972 4061 ft 226 kts 188°
2026-05-05 10:58 -27.56854 152.92008 4094 ft 226 kts 163°
2026-05-05 10:59 -27.58118 152.92964 4002 ft 222 kts 123°
2026-05-05 10:59 -27.58490 152.94637 3956 ft 230 kts 86°
2026-05-05 10:59 -27.58313 152.96420 3769 ft 226 kts 85°
2026-05-05 10:59 -27.58106 152.98220 3725 ft 236 kts 80°
2026-05-05 11:00 -27.57399 152.99900 3743 ft 242 kts 48°
2026-05-05 11:00 -27.56012 153.00912 3865 ft 238 kts 25°
2026-05-05 11:00 -27.54424 153.01532 3660 ft 246 kts 17°
2026-05-05 11:00 -27.52826 153.02151 3457 ft 236 kts 25°
2026-05-05 11:01 -27.51415 153.02952 3351 ft 218 kts 31°
2026-05-05 11:01 -27.50177 153.03782 3170 ft 203 kts 33°
2026-05-05 11:01 -27.49017 153.04574 2940 ft 184 kts 32°
2026-05-05 11:01 -27.47952 153.05240 2675 ft 167 kts 29°
2026-05-05 11:02 -27.46913 153.05782 2282 ft 162 kts 25°
2026-05-05 11:02 -27.45908 153.06288 1928 ft 155 kts 27°
2026-05-05 11:02 -27.44978 153.06822 1676 ft 145 kts 30°
2026-05-05 11:02 -27.44105 153.07338 1434 ft 138 kts 30°
2026-05-05 11:03 -27.43238 153.07835 1270 ft 142 kts 28°
2026-05-05 11:03 -27.42368 153.08334 1085 ft 139 kts 28°
2026-05-05 11:03 -27.41514 153.08839 817 ft 139 kts 29°
2026-05-05 11:03 -27.40656 153.09340 608 ft 139 kts 27°
2026-05-05 11:04 -27.39789 153.09822 422 ft 140 kts 28°
2026-05-05 11:04 -27.38926 153.10321 222 ft 137 kts 28°
2026-05-05 11:04 -27.38094 153.10799 41 ft 129 kts 28°
2026-05-05 11:04 -27.37387 153.11206 21 ft 92 kts 26°
2026-05-05 11:05 -27.36969 153.11447 22 ft 43 kts 27°
2026-05-05 11:05 -27.36760 153.11599 22 ft 34 kts 46°
2026-05-05 11:05 -27.36661 153.11759 21 ft 16 kts 57°
2026-05-05 11:05 -27.36626 153.11872 21 ft 15 kts 103°
2026-05-05 11:06 -27.36661 153.11930 21 ft 8 kts 152°
2026-05-05 11:06 -27.36716 153.11917 23 ft 9 kts 207°
2026-05-05 11:06 -27.36778 153.11880 22 ft 11 kts 207°
2026-05-05 11:06 -27.36850 153.11839 21 ft 13 kts 206°
2026-05-05 11:07 -27.36932 153.11793 23 ft 14 kts 206°
2026-05-05 11:07 -27.37024 153.11741 21 ft 16 kts 207°
2026-05-05 11:07 -27.37124 153.11684 21 ft 17 kts 207°
2026-05-05 11:07 -27.37229 153.11624 21 ft 14 kts 207°
2026-05-05 11:08 -27.37321 153.11622 23 ft 15 kts 144°
2026-05-05 11:08 -27.37375 153.11723 23 ft 16 kts 117°
2026-05-05 11:08 -27.37424 153.11830 21 ft 12 kts 117°
2026-05-05 11:08 -27.37464 153.11918 21 ft 13 kts 117°
2026-05-05 11:09 -27.37510 153.12018 21 ft 15 kts 117°
2026-05-05 11:09 -27.37559 153.12127 21 ft 16 kts 117°
2026-05-05 11:09 -27.37613 153.12245 22 ft 17 kts 117°
2026-05-05 11:09 -27.37671 153.12371 21 ft 18 kts 117°
2026-05-05 11:10 -27.37716 153.12470 21 ft 12 kts 117°
2026-05-05 11:10 -27.37755 153.12557 21 ft 13 kts 117°
2026-05-05 11:10 -27.37800 153.12655 21 ft 15 kts 117°
2026-05-05 11:10 -27.37850 153.12764 21 ft 17 kts 117°
2026-05-05 11:11 -27.37907 153.12811 21 ft 10 kts 188°
2026-05-05 11:11 -27.37978 153.12773 21 ft 12 kts 207°
2026-05-05 11:11 -27.38058 153.12727 22 ft 14 kts 207°
2026-05-05 11:11 -27.38148 153.12676 21 ft 15 kts 207°
2026-05-05 11:12 -27.38247 153.12619 22 ft 17 kts 207°
2026-05-05 11:12 -27.38310 153.12573 22 ft 8 kts 237°
2026-05-05 11:12 -27.38296 153.12510 22 ft 10 kts 296°
2026-05-05 11:12 -27.38263 153.12437 21 ft 11 kts 297°
2026-05-05 11:13 -27.38225 153.12353 21 ft 10 kts 297°
2026-05-05 11:13 -27.38205 153.12287 21 ft 9 kts 289°
2026-05-05 11:13 -27.38201 153.12246 21 ft 4 kts 231°
2026-05-05 11:13 -27.38227 153.12230 21 ft 1 kts 205°
2026-05-05 11:14 -27.38238 153.12224 21 ft 1 kts 204°